GW1081 Weather Reports


Display with metric or nautical units.
time (UTC)temp
F
wind
direction
speed
MPH
gust
MPH
rain 1hr
in
rain 24hr
in
rain mn
in
humidity
%
barometer
mb
20260504150341 47 333 7.0 21.0 0.00 0.03 0.00 56 1015.6
20260504141324 46 354 5.0 10.0 0.00 0.03 0.00 57 1015.6
20260504140831 46 326 4.0 10.0 0.00 0.03 0.00 59 1015.6
20260504140320 46 13 3.0 10.0 0.00 0.03 0.00 60 1015.5
20260504130318 45 3 7.0 14.0 0.00 0.03 0.00 64 1014.0
20260504110318 38 294 2.0 3.0 0.00 0.03 0.00 90 1011.7
20260504100322 40 224 1.0 1.0 0.00 0.03 0.00 88 1010.8
20260504081824 42 222 0.0 0.0 0.00 0.03 0.00 86 1010.9
20260504081330 41 222 0.0 0.0 0.00 0.03 0.00 85 1010.9
20260504080821 42 222 0.0 0.0 0.00 0.03 0.00 84 1010.9
20260504080330 42 222 0.0 0.0 0.00 0.03 0.00 85 1011.0
20260504070345 43 212 1.0 2.0 0.00 0.03 0.00 80 1011.3
20260504050326 46 207 2.0 2.0 0.00 0.03 0.03 62 1011.6
20260504045836 46 199 0.0 3.0 0.00 0.03 0.03 61 1011.6
20260504045322 46 198 0.0 3.0 0.00 0.03 0.03 60 1011.7
20260504044831 46 154 1.0 2.0 0.00 0.03 0.03 60 1011.6
20260504044320 47 154 0.0 3.0 0.00 0.03 0.03 60 1011.7
20260504043846 47 153 2.0 4.0 0.00 0.03 0.03 62 1011.7
20260504043317 47 135 4.0 6.0 0.00 0.03 0.03 65 1011.7
20260504042829 48 124 2.0 5.0 0.00 0.03 0.03 63 1011.7
20260504042318 49 117 1.0 3.0 0.00 0.03 0.03 61 1011.8
20260504041831 50 113 2.0 3.0 0.00 0.03 0.03 54 1011.8
20260504041320 52 215 2.0 2.0 0.00 0.03 0.03 51 1011.8
20260504040829 52 217 1.0 2.0 0.00 0.03 0.03 42 1011.9
20260504040317 53 217 2.0 2.0 0.00 0.03 0.03 42 1011.9
20260504035828 52 215 2.0 4.0 0.00 0.03 0.03 43 1012.0
20260504035318 52 149 2.0 5.0 0.00 0.03 0.03 51 1012.1
20260504034827 54 139 2.0 5.0 0.00 0.03 0.03 52 1012.1
20260504034319 57 113 2.0 3.0 0.00 0.03 0.03 47 1012.1
20260504033823 59 132 1.0 4.0 0.00 0.03 0.03 30 1012.1
20260504033333 59 290 2.0 4.0 0.00 0.03 0.03 28 1012.0
20260504032820 60 286 2.0 5.0 0.00 0.03 0.03 28 1012.0
20260504032331 60 297 2.0 5.0 0.00 0.03 0.03 28 1011.9
20260504031819 60 323 2.0 5.0 0.00 0.03 0.03 29 1011.9
20260504031349 60 283 3.0 6.0 0.00 0.03 0.03 29 1011.9
20260504030818 60 278 3.0 6.0 0.00 0.03 0.03 29 1011.9
20260504030330 60 288 2.0 4.0 0.00 0.03 0.03 29 1011.9
20260504025821 60 293 2.0 4.0 0.00 0.03 0.03 29 1011.9
20260504025312 60 290 2.0 5.0 0.00 0.03 0.03 30 1011.8
20260504024842 60 280 2.0 5.0 0.00 0.03 0.03 30 1011.8
20260504024330 61 287 1.0 4.0 0.00 0.03 0.03 30 1011.8
20260504023840 61 283 2.0 4.0 0.00 0.03 0.03 30 1011.8
20260504023327 61 290 2.0 4.0 0.00 0.03 0.03 31 1011.8
20260504022817 61 281 2.0 4.0 0.00 0.03 0.03 31 1011.6
20260504022329 61 291 2.0 4.0 0.00 0.03 0.03 31 1011.6
20260504021819 61 290 1.0 5.0 0.00 0.03 0.03 30 1011.6
20260504021329 62 290 1.0 5.0 0.00 0.03 0.03 30 1011.6
20260504020821 62 288 2.0 4.0 0.00 0.03 0.03 29 1011.6
20260504020326 63 293 1.0 4.0 0.00 0.03 0.03 29 1011.6
20260504015835 63 287 1.0 3.0 0.00 0.03 0.03 29 1011.5
20260504015325 63 273 1.0 4.0 0.00 0.03 0.03 29 1011.6
20260504014815 64 280 1.0 3.0 0.00 0.03 0.03 29 1011.5
20260504014325 64 284 0.0 3.0 0.00 0.03 0.03 29 1011.5
20260504013815 65 284 2.0 4.0 0.00 0.03 0.03 28 1011.6
20260504013321 65 280 1.0 5.0 0.00 0.03 0.03 28 1011.6
20260504012827 66 300 1.0 5.0 0.00 0.03 0.03 27 1011.8
20260504012318 67 250 1.0 5.0 0.00 0.03 0.03 27 1011.9
20260504011830 67 295 3.0 10.0 0.00 0.03 0.03 26 1011.9
20260504011321 67 284 4.0 10.0 0.00 0.03 0.03 26 1012.0
20260504010828 67 271 4.0 10.0 0.00 0.03 0.03 26 1012.0
20260504010319 67 246 4.0 7.0 0.00 0.03 0.03 25 1012.0
20260504005832 67 356 2.0 9.0 0.00 0.03 0.03 26 1012.1
20260504005321 67 299 5.0 9.0 0.00 0.03 0.03 26 1012.2
20260504004831 67 326 4.0 9.0 0.00 0.03 0.03 25 1012.2
20260504004322 67 304 3.0 7.0 0.00 0.03 0.03 26 1012.3
20260504003831 67 287 4.0 7.0 0.00 0.03 0.03 25 1012.3
20260504003320 68 325 5.0 9.0 0.00 0.03 0.03 25 1012.3
20260504002828 68 307 4.0 15.0 0.00 0.03 0.03 25 1012.3
20260504002319 68 280 5.0 11.0 0.00 0.03 0.03 25 1012.3
20260504001823 68 285 3.0 11.0 0.00 0.03 0.03 26 1012.4
20260504001331 69 293 5.0 9.0 0.00 0.03 0.03 26 1012.4
20260504000818 69 232 3.0 10.0 0.00 0.03 0.03 27 1012.4
20260504000346 68 282 3.0 10.0 0.00 0.03 0.03 27 1012.5
20260503235832 68 263 5.0 9.0 0.00 0.03 0.03 27 1012.6
20260503235320 68 281 4.0 9.0 0.00 0.03 0.03 27 1012.7
20260503234811 68 330 4.0 11.0 0.00 0.03 0.03 26 1012.7
20260503234347 68 289 3.0 11.0 0.00 0.03 0.03 27 1012.7
20260503233836 68 289 6.0 11.0 0.00 0.03 0.03 27 1012.7
20260503233326 68 276 5.0 11.0 0.00 0.03 0.03 29 1012.7
20260503232818 67 233 2.0 4.0 0.00 0.03 0.03 31 1012.8
20260503232356 66 165 1.0 3.0 0.00 0.03 0.03 31 1012.8
20260503231826 66 219 1.0 2.0 0.00 0.03 0.03 30 1012.9
20260503231352 65 266 0.0 5.0 0.00 0.03 0.03 32 1013.0
20260503230820 65 274 2.0 7.0 0.00 0.03 0.03 32 1013.0
20260503230329 66 304 4.0 8.0 0.00 0.03 0.03 32 1013.0
20260503225816 66 280 2.0 7.0 0.00 0.03 0.03 31 1013.0
20260503225328 66 259 2.0 4.0 0.00 0.03 0.03 33 1013.1
20260503224819 67 319 2.0 6.0 0.00 0.03 0.03 33 1013.0
20260503224329 67 46 3.0 8.0 0.00 0.03 0.03 32 1013.0
20260503223819 67 293 4.0 8.0 0.00 0.03 0.03 33 1013.2
20260503223323 67 12 3.0 6.0 0.00 0.03 0.03 34 1013.2
20260503222834 67 125 2.0 6.0 0.00 0.03 0.03 35 1013.3
20260503222320 66 114 3.0 6.0 0.00 0.03 0.03 36 1013.4
20260503221855 66 77 3.0 6.0 0.00 0.03 0.03 37 1013.4
20260503221322 66 13 3.0 9.0 0.00 0.03 0.03 38 1013.5
20260503220830 66 100 5.0 8.0 0.00 0.03 0.03 38 1013.6
20260503220320 65 110 3.0 8.0 0.00 0.03 0.03 40 1013.8
20260503215831 65 93 5.0 8.0 0.00 0.03 0.03 39 1013.9
20260503215320 65 91 3.0 7.0 0.00 0.03 0.03 41 1013.9
20260503214831 64 66 5.0 7.0 0.00 0.03 0.03 42 1014.1
20260503214319 64 87 3.0 7.0 0.00 0.03 0.03 42 1014.1
20260503213829 64 39 3.0 6.0 0.00 0.03 0.03 44 1014.2
20260503213319 63 65 4.0 7.0 0.00 0.03 0.03 43 1014.4
20260503212831 63 341 5.0 9.0 0.00 0.03 0.03 42 1014.5
20260503212323 64 47 4.0 9.0 0.00 0.03 0.03 42 1014.6
20260503211827 63 70 5.0 8.0 0.00 0.03 0.03 43 1014.6
20260503211316 62 63 4.0 7.0 0.00 0.03 0.03 46 1014.8
20260503210824 62 333 3.0 9.0 0.00 0.03 0.03 44 1014.9
20260503210316 63 27 6.0 9.0 0.00 0.03 0.03 43 1015.0
20260503205826 65 77 5.0 8.0 0.00 0.03 0.03 41 1015.0
20260503205317 65 86 1.0 6.0 0.00 0.03 0.03 40 1015.1
20260503204821 64 193 4.0 6.0 0.00 0.03 0.03 41 1015.2
20260503204344 64 199 0.0 8.0 0.01 0.03 0.03 40 1015.2
20260503203830 63 230 5.0 9.0 0.01 0.03 0.03 41 1015.3
20260503203318 63 214 4.0 11.0 0.01 0.03 0.03 40 1015.3
20260503202830 64 249 4.0 8.0 0.01 0.03 0.03 42 1015.3
20260503202320 62 225 3.0 7.0 0.01 0.03 0.03 43 1015.4
20260503201830 62 262 4.0 10.0 0.02 0.03 0.03 45 1015.5
20260503201321 61 221 5.0 10.0 0.03 0.03 0.03 44 1015.5
20260503200833 60 214 5.0 12.0 0.03 0.03 0.03 48 1015.6
20260503200328 59 215 5.0 9.0 0.03 0.03 0.03 51 1015.8
20260503195836 57 210 3.0 8.0 0.03 0.03 0.03 55 1015.9
20260503195323 55 155 4.0 12.0 0.03 0.03 0.03 52 1016.0
20260503194828 55 229 10.0 12.0 0.03 0.03 0.03 52 1016.2
20260503194318 55 284 5.0 9.0 0.02 0.02 0.02 55 1016.2
20260503193829 55 256 6.0 10.0 0.02 0.02 0.02 58 1016.4
20260503193318 55 222 4.0 11.0 0.02 0.02 0.02 59 1016.5
20260503192830 56 226 2.0 25.0 0.02 0.02 0.02 54 1016.5